EW7144 Weather Reports


time (UTC)temp
F
wind
direction
speed
knots
gust
knots
rain 1hr
in
rain 24hr
in
rain mn
in
humidity
%
barometer
mb
20260902165405 56 347 7.8 18.2 0.00 0.00 0.00 87 1015.0
20260902164906 56 342 8.7 17.4 0.00 0.00 0.00 87 1014.9
20260902164405 56 333 7.0 19.1 0.00 0.00 0.00 87 1015.0
20260902163909 56 330 10.4 19.1 0.00 0.00 0.00 87 1015.0
20260902163406 56 342 8.7 20.0 0.00 0.00 0.00 87 1014.9
20260902162905 56 342 7.8 17.4 0.00 0.00 0.00 87 1014.9
20260902162406 56 347 10.4 17.4 0.00 0.00 0.00 87 1014.9
20260902161905 56 356 8.7 19.1 0.00 0.00 0.00 87 1014.8
20260902161406 56 352 9.6 18.2 0.00 0.00 0.00 87 1014.7
20260902160905 56 328 10.4 21.7 0.00 0.00 0.00 88 1014.7
20260902160405 56 320 8.7 17.4 0.00 0.00 0.00 88 1014.7
20260902155905 56 337 8.7 18.2 0.00 0.00 0.00 88 1014.7
20260902154905 57 331 8.7 18.2 0.00 0.00 0.00 88 1014.7
20260902154405 57 355 11.3 19.1 0.00 0.00 0.00 88 1014.7
20260902153905 57 318 11.3 19.1 0.00 0.00 0.00 88 1014.6
20260902153406 56 349 8.7 18.2 0.00 0.00 0.00 88 1014.6
20260902152905 57 341 10.4 17.4 0.00 0.00 0.00 88 1014.7
20260902152405 56 328 10.4 17.4 0.00 0.00 0.00 88 1014.8
20260902151905 56 343 8.7 14.8 0.00 0.00 0.00 88 1014.7
20260902150905 57 345 11.3 19.1 0.00 0.00 0.00 88 1014.9
20260902150405 57 324 7.8 20.9 0.00 0.00 0.00 88 1014.8
20260902145906 57 338 10.4 22.6 0.00 0.00 0.00 88 1014.8
20260902145405 57 340 8.7 17.4 0.00 0.00 0.00 88 1015.0
20260902144905 57 347 7.8 18.2 0.00 0.00 0.00 88 1015.1
20260902144406 57 335 10.4 17.4 0.00 0.00 0.00 88 1015.1
20260902143405 57 343 8.7 17.4 0.00 0.00 0.00 88 1015.2
20260902142405 57 354 8.7 17.4 0.00 0.00 0.00 88 1015.4
20260902141406 56 327 7.0 18.2 0.00 0.00 0.00 88 1015.4
20260902140906 56 341 8.7 22.6 0.00 0.00 0.00 88 1015.5
20260902140405 56 347 7.8 20.0 0.00 0.00 0.00 88 1015.5
20260902135405 56 349 8.7 17.4 0.00 0.00 0.00 88 1015.5
20260902134905 57 347 7.8 17.4 0.00 0.00 0.00 87 1015.6
20260902134405 57 348 7.0 19.1 0.00 0.00 0.00 87 1015.6
20260902133905 57 306 6.1 14.8 0.00 0.00 0.00 87 1015.7
20260902133405 57 348 7.8 17.4 0.00 0.00 0.00 87 1015.7
20260902132905 57 345 10.4 18.2 0.00 0.00 0.00 87 1015.6
20260902132405 57 344 7.8 21.7 0.00 0.00 0.00 87 1015.5
20260902131905 57 352 10.4 20.9 0.00 0.00 0.00 87 1015.6
20260902130905 57 351 8.7 17.4 0.00 0.00 0.00 87 1015.5
20260902130405 57 349 10.4 21.7 0.00 0.00 0.00 87 1015.6
20260902125905 57 341 10.4 24.3 0.00 0.00 0.00 87 1015.6
20260902125406 57 336 8.7 17.4 0.00 0.00 0.00 87 1015.6
20260902124905 57 349 11.3 20.0 0.00 0.00 0.00 87 1015.4
20260902124405 57 349 8.7 18.2 0.00 0.00 0.00 87 1015.4
20260902123905 57 333 8.7 18.2 0.00 0.00 0.00 87 1015.4
20260902121905 57 345 11.3 20.9 0.00 0.00 0.00 86 1015.2
20260902121405 57 330 7.8 17.4 0.00 0.00 0.00 86 1015.2
20260902120905 57 329 10.4 19.1 0.00 0.00 0.00 86 1015.2
20260902120405 57 350 11.3 18.2 0.00 0.00 0.00 86 1015.2
20260902115905 57 337 11.3 20.0 0.00 0.00 0.00 86 1015.2
20260902115406 57 345 8.7 18.2 0.00 0.00 0.00 86 1015.2
20260902114906 57 351 10.4 20.0 0.00 0.00 0.00 86 1015.2
20260902113405 56 345 8.7 20.0 0.00 0.00 0.00 87 1015.2
20260902112905 56 354 7.8 19.1 0.00 0.00 0.00 87 1015.2
20260902112405 56 330 8.7 17.4 0.00 0.00 0.00 87 1015.3
20260902111905 56 342 7.8 15.6 0.00 0.00 0.00 87 1015.3
20260902111405 56 347 6.1 17.4 0.00 0.00 0.00 87 1015.3
20260902110905 56 332 7.8 20.9 0.00 0.00 0.00 87 1015.4
20260902110405 56 332 10.4 21.7 0.00 0.00 0.00 87 1015.2
20260902104405 57 336 10.4 20.0 0.00 0.00 0.00 86 1015.2
20260902103405 56 332 10.4 20.0 0.00 0.00 0.00 86 1015.2
20260902102904 56 357 10.4 17.4 0.00 0.00 0.00 86 1015.2
20260902102405 56 356 12.2 25.2 0.00 0.00 0.00 86 1015.1
20260902101909 56 341 11.3 20.0 0.00 0.00 0.00 86 1015.2
20260902101405 56 341 11.3 24.3 0.00 0.00 0.00 86 1015.2
20260902100905 56 345 10.4 20.9 0.00 0.00 0.00 86 1015.1
20260902100405 56 354 9.6 20.9 0.00 0.00 0.00 86 1015.2
20260902095905 56 351 8.7 17.4 0.00 0.00 0.00 85 1015.2
20260902095405 56 350 8.7 15.6 0.00 0.00 0.00 85 1015.1
20260902094905 56 286 8.7 17.4 0.00 0.00 0.00 85 1015.1
20260902094405 57 346 11.3 18.2 0.00 0.00 0.00 84 1015.2
20260902093905 57 356 8.7 20.9 0.00 0.00 0.00 84 1015.3
20260902092907 57 344 8.7 18.2 0.00 0.00 0.00 84 1015.1
20260902092406 57 346 12.2 24.3 0.00 0.00 0.00 84 1015.0
20260902091905 57 316 11.3 20.9 0.00 0.00 0.00 84 1014.9
20260902091406 57 337 9.6 17.4 0.00 0.00 0.00 85 1014.9
20260902090905 57 327 8.7 17.4 0.00 0.00 0.00 84 1014.9
20260902090406 57 333 7.8 20.0 0.00 0.00 0.00 84 1014.9
20260902085405 57 343 9.6 20.0 0.00 0.00 0.00 84 1014.6
20260902084906 57 356 11.3 21.7 0.00 0.00 0.00 85 1014.7
20260902084407 57 331 8.7 17.4 0.00 0.00 0.00 85 1014.7
20260902083909 57 344 10.4 22.6 0.00 0.00 0.00 85 1014.7
20260902083405 57 330 8.7 14.8 0.00 0.00 0.00 85 1014.7
20260902082406 57 343 10.4 20.0 0.00 0.00 0.00 84 1014.7
20260902081905 57 349 9.6 20.9 0.00 0.00 0.00 84 1014.6
20260902081405 57 331 7.8 17.4 0.00 0.00 0.00 84 1014.6
20260902080904 57 331 6.1 17.4 0.00 0.00 0.00 84 1014.6
20260902080405 57 348 7.8 19.1 0.00 0.00 0.00 84 1014.5
20260902075905 57 344 7.8 24.3 0.00 0.00 0.00 84 1014.4
20260902074905 56 301 10.4 20.9 0.00 0.00 0.00 85 1014.5
20260902074406 56 317 7.8 17.4 0.00 0.00 0.00 85 1014.5
20260902073906 57 345 9.6 17.4 0.00 0.00 0.00 85 1014.3
20260902073405 56 345 8.7 21.7 0.00 0.00 0.00 85 1014.3
20260902072905 56 343 7.8 13.9 0.00 0.00 0.00 85 1014.3
20260902072405 56 344 7.8 17.4 0.00 0.00 0.00 84 1014.4
20260902071905 56 351 9.6 19.1 0.00 0.00 0.00 84 1014.6
20260902071405 56 346 8.7 22.6 0.00 0.00 0.00 84 1014.6
20260902070405 56 329 7.8 18.2 0.00 0.00 0.00 84 1014.5
20260902065906 56 353 11.3 20.0 0.00 0.00 0.00 85 1014.5
20260902065405 56 298 10.4 17.4 0.00 0.00 0.00 85 1014.3
20260902064905 56 346 13.0 20.9 0.00 0.00 0.00 85 1014.3
20260902064405 56 348 9.6 20.0 0.00 0.00 0.00 85 1014.4
20260902063905 56 340 8.7 22.6 0.00 0.00 0.00 86 1014.4
20260902063405 56 326 8.7 22.6 0.00 0.00 0.00 86 1014.6
20260902062906 56 309 7.8 17.4 0.00 0.00 0.00 86 1014.6
20260902062409 56 316 7.8 18.2 0.00 0.00 0.00 87 1014.6
20260902061906 56 330 6.1 17.4 0.00 0.00 0.00 87 1014.7
20260902061405 56 339 7.0 14.8 0.00 0.00 0.00 87 1014.7
20260902060905 56 337 5.2 13.0 0.00 0.00 0.00 87 1014.7
20260902060405 56 294 7.8 20.9 0.00 0.00 0.00 87 1014.7
20260902055905 56 316 7.8 13.9 0.00 0.00 0.00 87 1014.5
20260902055405 56 290 5.2 12.2 0.00 0.00 0.00 87 1014.6
20260902054405 56 318 6.1 15.6 0.00 0.00 0.00 87 1014.6
20260902053905 56 275 6.1 13.9 0.00 0.00 0.00 87 1014.7
20260902052906 56 340 4.3 11.3 0.00 0.00 0.00 87 1014.6
20260902052405 56 314 7.0 14.8 0.00 0.00 0.00 87 1014.6
20260902051905 56 321 4.3 17.4 0.00 0.00 0.00 87 1014.6
20260902050904 56 346 7.8 13.9 0.00 0.00 0.00 86 1014.5
20260902050404 56 338 6.1 15.6 0.00 0.00 0.00 86 1014.5
20260902045905 56 344 7.8 15.6 0.00 0.00 0.00 86 1014.6
20260902045405 56 333 7.8 17.4 0.00 0.00 0.00 87 1014.6
20260902044905 56 314 6.1 14.8 0.00 0.00 0.00 87 1014.5
20260902044404 56 313 5.2 11.3 0.00 0.00 0.00 87 1014.5
20260902043905 56 282 7.0 12.2 0.00 0.00 0.00 87 1014.6
20260902043405 55 240 5.2 13.9 0.00 0.00 0.00 87 1014.7
20260902042905 55 300 4.3 11.3 0.00 0.00 0.00 87 1014.7
20260902042405 55 333 5.2 12.2 0.00 0.00 0.00 87 1014.7
20260902041905 55 304 4.3 8.7 0.00 0.00 0.00 87 1014.7
20260902041405 55 317 7.0 13.9 0.00 0.00 0.00 87 1014.8
20260902040905 55 312 5.2 13.0 0.00 0.00 0.00 86 1014.7
20260902040405 55 290 5.2 13.9 0.00 0.00 0.00 86 1014.8
20260902035905 55 290 6.1 11.3 0.00 0.00 0.00 86 1014.8
20260902035405 55 300 3.5 12.2 0.00 0.00 0.00 85 1014.9
20260902034405 55 302 4.3 11.3 0.00 0.00 0.00 83 1015.0
20260902033905 56 309 5.2 12.2 0.00 0.00 0.00 81 1015.0
20260902033405 56 335 5.2 10.4 0.00 0.00 0.00 80 1014.8
20260902032908 57 278 4.3 13.0 0.00 0.00 0.00 79 1014.9
20260902032405 57 338 6.1 11.3 0.00 0.00 0.00 78 1014.9
20260902031405 58 231 5.2 13.0 0.00 0.00 0.00 77 1015.0
20260902030905 58 282 5.2 12.2 0.00 0.00 0.00 76 1015.0
20260902030404 59 217 3.5 17.4 0.00 0.00 0.00 76 1014.9
20260902025904 59 306 5.2 17.4 0.00 0.00 0.00 74 1015.0
20260902025405 60 293 6.1 13.0 0.00 0.00 0.00 74 1014.9
20260902024905 60 311 6.1 14.8 0.00 0.00 0.00 74 1014.9
20260902024404 59 280 8.7 20.9 0.00 0.00 0.00 74 1014.9
20260902022905 60 255 6.1 17.4 0.00 0.00 0.00 75 1014.9
20260902022405 60 289 7.8 17.4 0.00 0.00 0.00 75 1014.9
20260902021905 60 312 7.0 18.2 0.00 0.00 0.00 76 1014.9
20260902021405 59 313 7.8 17.4 0.00 0.00 0.00 75 1014.9
20260902020905 59 308 7.0 19.1 0.00 0.00 0.00 75 1014.8
20260902015405 60 296 8.7 19.1 0.00 0.00 0.00 74 1014.8
20260902014905 60 290 6.1 17.4 0.00 0.00 0.00 75 1014.7
20260902014405 59 324 7.8 18.2 0.00 0.00 0.00 74 1014.7
20260902013905 59 333 7.8 15.6 0.00 0.00 0.00 75 1014.7
20260902012906 59 295 7.8 19.1 0.00 0.00 0.00 75 1014.7
20260902012405 59 212 7.0 14.8 0.00 0.00 0.00 75 1014.9
20260902011905 59 312 6.1 19.1 0.00 0.00 0.00 76 1014.9
20260902011405 59 292 8.7 18.2 0.00 0.00 0.00 75 1014.9
20260902010405 59 305 5.2 17.4 0.00 0.00 0.00 75 1015.1
20260902005406 59 349 7.8 14.8 0.00 0.00 0.00 74 1015.2
20260902004905 59 315 8.7 17.4 0.00 0.00 0.00 75 1015.2
20260902004406 59 340 8.7 22.6 0.00 0.00 0.00 74 1015.3
20260902003406 59 251 7.8 20.9 0.00 0.00 0.00 74 1015.4
20260902002905 59 273 7.8 15.6 0.00 0.00 0.00 74 1015.3
20260902002406 59 282 8.7 20.0 0.00 0.00 0.00 73 1015.4
20260902001905 59 319 7.0 18.2 0.00 0.00 0.00 73 1015.3
20260902001405 59 326 7.8 17.4 0.00 0.00 0.00 73 1015.4
20260902000905 59 294 7.8 18.2 0.00 0.00 0.00 73 1015.4
20260902000406 59 338 10.4 17.4 0.00 0.00 0.00 73 1015.4
20260901235905 60 284 8.7 17.4 0.00 0.00 0.00 71 1015.4
20260901235407 60 284 7.8 17.4 0.00 0.00 0.00 71 1015.3
20260901234906 60 323 7.0 15.6 0.00 0.00 0.00 71 1015.4
20260901234406 60 334 4.3 13.9 0.00 0.00 0.00 72 1015.3
20260901233905 60 249 8.7 14.8 0.00 0.00 0.00 71 1015.3
20260901233405 60 263 6.1 17.4 0.00 0.00 0.00 72 1015.3
20260901232405 59 303 5.2 17.4 0.00 0.00 0.00 74 1015.4
20260901230905 59 273 5.2 12.2 0.00 0.00 0.00 74 1015.6
20260901230406 59 254 5.2 15.6 0.00 0.00 0.00 74 1015.7
20260901225905 59 257 7.8 17.4 0.00 0.00 0.00 74 1015.5
20260901225407 59 267 6.1 13.9 0.00 0.00 0.00 76 1015.6
20260901224905 59 266 6.1 14.8 0.00 0.00 0.00 76 1015.7
20260901224406 58 232 6.1 22.6 0.00 0.00 0.00 76 1015.8
20260901223906 58 221 7.8 14.8 0.00 0.00 0.00 75 1015.7
20260901223405 58 246 5.2 18.2 0.00 0.00 0.00 76 1015.6
20260901222405 58 259 6.1 18.2 0.00 0.00 0.00 75 1015.6
20260901221905 58 308 7.8 17.4 0.00 0.00 0.00 75 1015.6
20260901221405 58 300 5.2 14.8 0.00 0.00 0.00 76 1015.6
20260901220906 57 348 4.3 14.8 0.00 0.00 0.00 75 1015.6
20260901220405 57 293 7.0 18.2 0.00 0.00 0.00 75 1015.5
20260901215906 57 274 7.8 17.4 0.00 0.00 0.00 75 1015.5
20260901215406 57 329 7.0 18.2 0.00 0.00 0.00 75 1015.5
20260901214405 57 335 7.0 18.2 0.00 0.00 0.00 76 1015.6
20260901213405 57 334 7.0 15.6 0.00 0.00 0.00 75 1015.6
20260901212905 57 337 7.0 20.0 0.00 0.00 0.00 75 1015.4
20260901212405 56 294 6.1 21.7 0.00 0.00 0.00 75 1015.4
20260901211905 56 310 5.2 17.4 0.00 0.00 0.00 75 1015.5
20260901211405 56 294 6.1 13.9 0.00 0.00 0.00 75 1015.5
20260901210405 56 270 4.3 15.6 0.00 0.00 0.00 75 1015.6
20260901205905 55 306 4.3 10.4 0.00 0.00 0.00 75 1015.7
20260901205407 55 203 4.3 18.2 0.00 0.00 0.00 75 1015.8
20260901204906 55 239 5.2 15.6 0.00 0.00 0.00 75 1015.9
20260901204405 54 216 5.2 11.3 0.00 0.00 0.00 76 1015.8
20260901203904 54 205 7.0 13.0 0.00 0.00 0.00 76 1015.8
20260901202906 53 210 6.1 21.7 0.00 0.00 0.00 78 1015.8
20260901202405 52 215 6.1 15.6 0.00 0.00 0.00 79 1015.9
20260901201905 52 223 5.2 10.4 0.00 0.00 0.00 79 1016.0
20260901201406 52 214 5.2 15.6 0.00 0.00 0.00 80 1016.0
20260901200905 51 293 5.2 10.4 0.00 0.00 0.00 80 1016.0
20260901200405 51 320 4.3 11.3 0.00 0.00 0.00 81 1016.1
20260901195904 51 225 3.5 8.7 0.00 0.00 0.00 81 1016.0
20260901194905 51 224 3.5 11.3 0.00 0.00 0.00 81 1015.9
20260901194405 51 233 5.2 13.0 0.00 0.00 0.00 81 1015.8
20260901193905 51 223 5.2 11.3 0.00 0.00 0.00 81 1015.8
20260901193405 51 315 6.1 20.0 0.00 0.00 0.00 82 1015.7
20260901192906 51 218 3.5 11.3 0.00 0.00 0.00 82 1015.6
20260901191905 51 200 4.3 17.4 0.00 0.00 0.00 83 1015.6
20260901191405 51 216 7.8 17.4 0.00 0.00 0.00 83 1015.4
20260901190905 51 350 2.6 10.4 0.00 0.00 0.00 83 1015.5
20260901190406 51 269 3.5 10.4 0.00 0.00 0.00 83 1015.5
20260901185905 51 226 5.2 11.3 0.00 0.00 0.00 83 1015.6
20260901185405 51 290 2.6 10.4 0.00 0.00 0.00 84 1015.5
20260901184905 51 235 4.3 12.2 0.00 0.00 0.00 84 1015.4
20260901184405 51 261 4.3 11.3 0.00 0.00 0.00 84 1015.5
20260901183905 52 282 5.2 13.9 0.00 0.00 0.00 84 1015.5
20260901183405 52 214 6.1 13.9 0.00 0.00 0.00 83 1015.7
20260901182905 51 256 5.2 12.2 0.00 0.00 0.00 83 1015.4
20260901182404 51 280 2.6 10.4 0.00 0.00 0.00 83 1015.4
20260901181905 51 276 2.6 11.3 0.00 0.00 0.00 83 1015.3
20260901180905 51 225 3.5 13.0 0.00 0.00 0.00 83 1015.4
20260901180405 51 297 4.3 11.3 0.00 0.00 0.00 83 1015.3
20260901175905 51 278 2.6 7.8 0.00 0.00 0.00 82 1015.3
20260901175405 50 270 4.3 7.8 0.00 0.00 0.00 82 1015.3
20260901174405 51 293 1.7 8.7 0.00 0.00 0.00 82 1015.2
20260901173905 51 239 3.5 8.7 0.00 0.00 0.00 81 1015.2
20260901173405 51 230 5.2 10.4 0.00 0.00 0.00 81 1015.2
20260901172905 51 218 5.2 14.8 0.00 0.00 0.00 81 1015.3
20260901172405 51 198 5.2 13.0 0.00 0.00 0.00 82 1015.3
20260901171905 51 219 5.2 12.2 0.00 0.00 0.00 82 1015.2
20260901171405 51 305 6.1 13.9 0.00 0.00 0.00 82 1015.1
20260901170904 51 265 5.2 14.8 0.00 0.00 0.00 83 1014.9
20260901170404 50 244 4.3 14.8 0.00 0.00 0.00 84 1014.9
20260901165905 51 202 5.2 12.2 0.00 0.00 0.00 84 1014.9